Regional Weather Roundup
Issued by NWS

Home | Current Version | Previous Version | Text Only | Print | Product List | Glossary Off
Versions: 1 2 3 4 5 6 7 8 9 10 11 12 13 14 15 16 17 18 19 20 21 22 23 24 25 26 27 28 29 30 31 32 33 34 35 36 37 38 39 40 41 42 43 44 45 46 47 48 49 50

000
ASUS43 KLOT 300510
RWRIL

ILLINOIS REGIONAL WEATHER ROUNDUP
NATIONAL WEATHER SERVICE CHICAGO/ROMEOVILLE IL
1100 PM CST THU JAN 29 2015

NOTE: "FAIR" INDICATES FEW OR NO CLOUDS BELOW 12,000 FEET WITH NO
SIGNIFICANT WEATHER AND/OR OBSTRUCTIONS TO VISIBILITY.

* THESE STATIONS ARE NOT UNDER NWS QUALITY CONTROL. THEY ALSO MAY NOT
  REPORT WEATHER SUCH AS PRECIPITATION OR FOG.

ILZ001-002-007-009-015-016-024-300600-
NORTHWEST ILLINOIS

CITY           SKY/WX    TMP DP  RH WIND       PRES   REMARKS
MOLINE         CLOUDY    29  19  66 NW18G24   30.40R WCI  16
STERLING*      CLOUDY    30  19  64 N14       30.36R WCI  20
SAVANNA*       MOCLDY    29  15  55 N10G16    30.39R WCI  20
$$

ILZ003-004-008-010-011-017-018-300600-
NORTH CENTRAL ILLINOIS

CITY           SKY/WX    TMP DP  RH WIND       PRES   REMARKS
ROCKFORD       CLOUDY    30  16  56 N17       30.35R WCI  18
FREEPORT*      PTCLDY    27  17  65 NW14G20   30.36R WCI  15
ROCHELLE*      CLOUDY    30  20  67 NW15G23   30.33R WCI  19
DE KALB*       CLOUDY    29  20  67 N18G24    30.31R WCI  17
PERU*          CLOUDY    32  25  74 NW17      30.34R WCI  21
$$

ILZ005-006-012>014-019>023-300600-
NORTHEAST ILLINOIS

CITY           SKY/WX    TMP DP  RH WIND       PRES   REMARKS
CHICAGO-OHARE  FLURRIES  31  21  66 N18G32    30.28R WCI  19
CHICAGO-MIDWAY FLURRIES  34  22  61 N9        30.28R WCI  27
AURORA         CLOUDY    32  20  61 N17G29    30.30R WCI  21
LANSING*       CLOUDY    34  19  53 N14G26    30.26R WCI  25
JOLIET*        CLOUDY    33  20  59 NW8       30.30R WCI  26
WAUKEGAN       CLOUDY    29  17  61 N10G23    30.29R WCI  20
DUPAGE AIRPORT CLOUDY    32  17  54 N22G28    30.29R WCI  19
KANKAKEE*      CLOUDY    34  22  60 NW17G23   30.29R WCI  24
WHEELING       LGT SNOW  30  21  69 N15G22    30.31R WCI  19
MORRIS*        CLOUDY    33  25  73 N9G17     30.30R WCI  25
ROMEOVILLE*    CLOUDY    33  19  58 NW12G21   30.29R WCI  24
NORTHERLY ISL    N/A     32  23  70 MISG        N/A
$$

LMZ740>746-300600-
SOUTHERN LAKE MICHIGAN

STATION/POSITION SKY/WX   TEMP    WIND        PRES    VSBY  WAVE
                          AIR SEA DIR/SP/G                  HT/PER
                          (F)     (DEG/KT/KT) (MB)    (MI)  (FT/S)
WAUKEGAN HARBOR            30     340/ 21/ 25   N/A
HARRISON CRIB              31     350/ 26/ 30   N/A
BURNHAM HARBOR             31      80/ 15/ 20   N/A
CALUMET HARBOR             35     310/ 12/ 19   N/A
MICHIGAN CITY              32     330/ 30/ 35   N/A
$$

ILZ025>027-034>036-040-047-049-050-058-095>099-300600-
WEST-CENTRAL ILLINOIS

CITY           SKY/WX    TMP DP  RH WIND       PRES   REMARKS
QUINCY         MOCLDY    30  21  69 NW15      30.44R WCI  19
GALESBURG*     CLOUDY    29  22  74 NW21G28   30.40R WCI  16
MACOMB*        CLOUDY    31  24  75 NW22G28   30.44R WCI  18
JACKSONVILLE*  CLOUDY    35  25  67 NW12G22   30.40S WCI  27
PITTSFIELD*    CLOUDY    33  23  67 NW16      30.44R WCI  22
$$

ILZ028>032-037-038-041>044-048-051>054-059>061-300600-
CENTRAL ILLINOIS

CITY           SKY/WX    TMP DP  RH WIND       PRES   REMARKS
PONTIAC        CLOUDY    34  28  79 NW13      30.32R WCI  25
BLOOMINGTON    CLOUDY    32  27  80 NW18      30.34R WCI  20
DECATUR        CLOUDY    34  23  64 NW18G26   30.35R WCI  23
PEORIA         CLOUDY    33  20  58 NW18G28   30.37R WCI  22
LACON*         CLOUDY    32  24  71 NW15      30.35R WCI  22
LINCOLN*       CLOUDY    34  25  68 N12G17    30.38R WCI  26
SPRINGFIELD    CLOUDY    34  24  67 NW16      30.39R WCI  24
TAYLORVILLE    CLOUDY    32  27  80 NW12      30.38R WCI  23
$$

ILZ033-039-045-046-055>057-062-063-300600-
EAST-CENTRAL ILLINOIS

CITY           SKY/WX    TMP DP  RH WIND       PRES   REMARKS
CHAMPAIGN      CLOUDY    33  28  81 NW15      30.31R WCI  23
DANVILLE*      CLOUDY    33  28  83 W9        30.25S WCI  25
RANTOUL*       CLOUDY    35  29  81 NW15      30.30R WCI  25
MATTOON        CLOUDY    33  26  75 NW17      30.32R WCI  22
PARIS*         CLOUDY    34  31  90 W13       30.31R WCI  25
$$

ILZ079-100>102-300600-
SOUTHWEST ILLINOIS

CITY           SKY/WX    TMP DP  RH WIND       PRES   REMARKS
ALTON          CLOUDY    35  24  65 NW10      30.42R WCI  27
BELLEVILLE     CLOUDY    36  26  67 NW16G24   30.41R WCI  26
CAHOKIA*       CLOUDY    37  26  64 NW16      30.43R WCI  28
SPARTA*        CLOUDY    35  26  69 NW12G21   30.41S WCI  27
$$

ILZ064>066-069>071-074>076-080>082-084>086-088>090-092>094-300600-
SOUTH-CENTRAL ILLINOIS

CITY           SKY/WX    TMP DP  RH WIND       PRES   REMARKS
CARBONDALE     CLOUDY    36  26  67 N12       30.41R WCI  28
CAIRO*         CLOUDY    42  30  62 N14G22    30.40R
EFFINGHAM*     CLOUDY    34  26  71 NW12      30.38R WCI  25
MARION         CLOUDY    37  28  70 NW9G17    30.41R WCI  31
MT. VERNON     CLOUDY    36  25  64 NW5       30.39S WCI  32
CENTRALIA*     CLOUDY    34  26  72 NW13G23   30.39S WCI  25
SALEM*         CLOUDY    36  28  73 NW13      30.39S WCI  27
METROPOLIS*    CLOUDY    39  31  72 N9G18     30.38S WCI  33
$$

ILZ067-068-072-073-078-083-087-091-300600-
SOUTHEAST ILLINOIS

CITY           SKY/WX    TMP DP  RH WIND       PRES   REMARKS
LAWRENCEVILLE  CLOUDY    35  29  78 NW16      30.34R WCI  25
FLORA*         CLOUDY    34  28  79 NW13G18   30.38R WCI  25
FAIRFIELD*     CLOUDY    35  28  74 NW8       30.37R WCI  29
HARRISBURG*    CLOUDY    36  28  73 N9G16     30.41R WCI  29
ROBINSON*      CLOUDY    35  30  83 NW12G20   30.34R WCI  26
CARMI*         CLOUDY    37  31  79 NW15      30.38R WCI  28
$$

ABBREVIATIONS USED IN REMARKS
   TC - TEMPERATURE IN CELSIUS
  WCI - WIND CHILL INDEX
   HX - HEAT INDEX
  VSB - VISIBILITY
$$



USA.gov is the U.S. government's official web portal to all federal, state and local government web resources and services.